Time,TemperatureF,DewpointF,PressureIn,WindDirection,WindDirectionDegrees,WindSpeedMPH,WindSpeedGustMPH,Humidity,HourlyPrecipIn,Conditions,Clouds,dailyrainin,SolarRadiationWatts/m^2,SoftwareType,DateUTC
2017-07-24 00:01:00,69.0,67.5,29.84,SW,218,0.0,0.0,95,0.00,,,0.00,0,Wunderground v.1.15,2017-07-24 04:01:00,
2017-07-24 00:06:00,69.0,67.5,29.84,SW,218,0.0,0.0,95,0.00,,,0.00,0,Wunderground v.1.15,2017-07-24 04:06:00,
2017-07-24 00:12:00,68.9,67.4,29.84,SW,218,0.0,0.0,95,0.00,,,0.00,0,Wunderground v.1.15,2017-07-24 04:12:00,
2017-07-24 00:17:00,68.8,67.3,29.84,SW,218,0.0,0.0,95,0.00,,,0.00,0,Wunderground v.1.15,2017-07-24 04:17:00,
2017-07-24 00:22:00,68.8,67.3,29.84,SW,218,0.0,0.0,95,0.00,,,0.00,0,Wunderground v.1.15,2017-07-24 04:22:00,
2017-07-24 00:27:00,68.7,67.2,29.84,SW,218,0.0,0.0,95,0.00,,,0.00,0,Wunderground v.1.15,2017-07-24 04:27:00,
2017-07-24 00:33:00,68.7,67.2,29.84,SW,218,0.0,0.0,95,0.00,,,0.00,0,Wunderground v.1.15,2017-07-24 04:33:00,
2017-07-24 00:38:00,68.6,67.1,29.83,SW,218,0.0,0.0,95,0.00,,,0.00,0,Wunderground v.1.15,2017-07-24 04:38:00,
2017-07-24 00:44:00,68.6,67.1,29.83,SW,218,0.0,0.0,95,0.00,,,0.00,0,Wunderground v.1.15,2017-07-24 04:44:00,
2017-07-24 00:50:00,68.6,67.1,29.83,SW,218,0.0,0.0,95,0.00,,,0.00,0,Wunderground v.1.15,2017-07-24 04:50:00,
2017-07-24 00:56:00,68.6,67.1,29.82,SW,218,0.0,0.0,95,0.00,,,0.00,0,Wunderground v.1.15,2017-07-24 04:56:00,
2017-07-24 01:02:00,68.6,67.1,29.82,SW,218,0.0,0.0,95,0.00,,,0.00,0,Wunderground v.1.15,2017-07-24 05:02:00,
2017-07-24 01:07:00,68.5,67.0,29.82,SW,218,0.0,0.0,95,0.00,,,0.00,0,Wunderground v.1.15,2017-07-24 05:07:00,
2017-07-24 01:13:00,68.5,67.0,29.82,SW,218,0.0,0.0,95,0.00,,,0.00,0,Wunderground v.1.15,2017-07-24 05:13:00,
2017-07-24 01:18:00,68.4,66.9,29.82,SW,218,0.0,0.0,95,0.00,,,0.00,0,Wunderground v.1.15,2017-07-24 05:18:00,
2017-07-24 01:24:00,68.4,66.9,29.82,SW,218,0.0,0.0,95,0.00,,,0.00,0,Wunderground v.1.15,2017-07-24 05:24:00,
2017-07-24 01:29:00,68.3,66.8,29.82,SW,218,0.0,0.0,95,0.00,,,0.00,0,Wunderground v.1.15,2017-07-24 05:29:00,
2017-07-24 01:34:00,68.3,66.8,29.81,SW,218,0.0,0.0,95,0.00,,,0.00,0,Wunderground v.1.15,2017-07-24 05:34:00,
2017-07-24 01:39:00,68.3,67.1,29.82,SW,218,0.0,0.0,96,0.00,,,0.00,0,Wunderground v.1.15,2017-07-24 05:39:00,
2017-07-24 01:45:00,68.2,67.0,29.81,SW,218,0.0,0.0,96,0.00,,,0.00,0,Wunderground v.1.15,2017-07-24 05:45:00,
2017-07-24 01:51:00,68.1,66.6,29.81,SW,218,0.0,0.0,95,0.00,,,0.00,0,Wunderground v.1.15,2017-07-24 05:51:00,
2017-07-24 01:57:00,68.1,66.6,29.81,SW,218,0.0,0.0,95,0.00,,,0.00,0,Wunderground v.1.15,2017-07-24 05:57:00,
2017-07-24 02:05:00,68.1,66.6,29.81,SW,218,0.0,0.0,95,0.00,,,0.00,0,Wunderground v.1.15,2017-07-24 06:05:00,
2017-07-24 02:10:00,68.0,66.5,29.80,SW,218,0.0,0.0,95,0.00,,,0.00,0,Wunderground v.1.15,2017-07-24 06:10:00,
2017-07-24 02:15:00,68.0,66.5,29.79,SW,220,0.0,1.0,95,0.00,,,0.00,0,Wunderground v.1.15,2017-07-24 06:15:00,
2017-07-24 02:20:00,67.9,66.4,29.79,NW,317,0.0,2.0,95,0.00,,,0.00,0,Wunderground v.1.15,2017-07-24 06:20:00,
2017-07-24 02:25:00,67.9,66.7,29.79,NW,317,0.0,0.0,96,0.00,,,0.00,0,Wunderground v.1.15,2017-07-24 06:25:00,
2017-07-24 02:30:00,67.9,66.7,29.79,West,271,0.0,1.0,96,0.00,,,0.00,0,Wunderground v.1.15,2017-07-24 06:30:00,
2017-07-24 02:35:00,67.8,66.6,29.79,West,271,0.0,0.0,96,0.00,,,0.00,0,Wunderground v.1.15,2017-07-24 06:35:00,
2017-07-24 02:40:00,67.8,66.6,29.79,West,271,0.0,0.0,96,0.00,,,0.00,0,Wunderground v.1.15,2017-07-24 06:40:00,
2017-07-24 02:45:00,67.8,66.6,29.78,West,271,0.0,0.0,96,0.00,,,0.00,0,Wunderground v.1.15,2017-07-24 06:45:00,
2017-07-24 02:50:00,67.8,66.6,29.78,West,271,0.0,0.0,96,0.00,,,0.00,0,Wunderground v.1.15,2017-07-24 06:50:00,
2017-07-24 02:55:00,67.8,66.6,29.78,West,271,0.0,0.0,96,0.00,,,0.00,0,Wunderground v.1.15,2017-07-24 06:55:00,
2017-07-24 02:56:00,67.9,66.7,29.78,West,271,0.0,0.0,96,0.00,,,0.00,0,Wunderground v.1.15,2017-07-24 06:56:00,
2017-07-24 03:01:00,67.9,66.7,29.78,West,271,0.0,0.0,96,0.00,,,0.00,0,Wunderground v.1.15,2017-07-24 07:01:00,
2017-07-24 03:06:00,68.0,66.8,29.78,West,271,0.0,1.0,96,0.00,,,0.00,0,Wunderground v.1.15,2017-07-24 07:06:00,
2017-07-24 03:11:00,68.0,66.8,29.78,West,271,0.0,0.0,96,0.00,,,0.01,0,Wunderground v.1.15,2017-07-24 07:11:00,
2017-07-24 03:16:00,68.0,66.8,29.78,West,271,0.0,1.0,96,0.26,,,0.04,0,Wunderground v.1.15,2017-07-24 07:16:00,
2017-07-24 03:21:00,68.0,66.8,29.77,West,271,0.0,0.0,96,0.30,,,0.06,0,Wunderground v.1.15,2017-07-24 07:21:00,
2017-07-24 03:26:00,67.9,66.7,29.77,West,271,0.0,0.0,96,0.23,,,0.08,0,Wunderground v.1.15,2017-07-24 07:26:00,
2017-07-24 03:31:00,67.9,66.7,29.77,West,271,0.0,0.0,96,0.19,,,0.10,0,Wunderground v.1.15,2017-07-24 07:31:00,
2017-07-24 03:36:00,67.9,66.7,29.77,West,271,0.0,0.0,96,0.11,,,0.11,0,Wunderground v.1.15,2017-07-24 07:36:00,
2017-07-24 03:41:00,67.9,66.7,29.77,West,271,0.0,0.0,96,0.13,,,0.12,0,Wunderground v.1.15,2017-07-24 07:41:00,
2017-07-24 03:46:00,67.8,66.6,29.77,West,271,0.0,2.0,96,0.11,,,0.13,0,Wunderground v.1.15,2017-07-24 07:46:00,
2017-07-24 03:51:00,67.8,66.6,29.76,West,271,0.0,0.0,96,0.12,,,0.14,0,Wunderground v.1.15,2017-07-24 07:51:00,
2017-07-24 03:56:00,67.9,66.7,29.77,West,271,0.0,0.0,96,0.12,,,0.15,0,Wunderground v.1.15,2017-07-24 07:56:00,
2017-07-24 04:01:00,67.9,66.7,29.77,West,271,0.0,0.0,96,0.13,,,0.16,0,Wunderground v.1.15,2017-07-24 08:01:00,
2017-07-24 04:07:00,67.8,66.6,29.76,West,271,0.0,0.0,96,0.14,,,0.18,0,Wunderground v.1.15,2017-07-24 08:07:00,
2017-07-24 04:12:00,67.8,66.6,29.76,West,271,0.0,0.0,96,0.11,,,0.18,0,Wunderground v.1.15,2017-07-24 08:12:00,
2017-07-24 04:17:00,67.8,66.6,29.76,West,271,0.0,2.0,96,0.06,,,0.18,0,Wunderground v.1.15,2017-07-24 08:17:00,
2017-07-24 04:22:00,67.8,66.6,29.76,SW,223,0.0,0.0,96,0.04,,,0.18,0,Wunderground v.1.15,2017-07-24 08:22:00,
2017-07-24 04:27:00,67.7,66.5,29.77,SW,223,0.0,0.0,96,0.00,,,0.18,0,Wunderground v.1.15,2017-07-24 08:27:00,
2017-07-24 04:32:00,67.7,66.5,29.77,SW,223,0.0,0.0,96,0.00,,,0.18,0,Wunderground v.1.15,2017-07-24 08:32:00,
2017-07-24 04:37:00,67.8,66.6,29.76,SW,223,0.0,0.0,96,0.00,,,0.19,0,Wunderground v.1.15,2017-07-24 08:37:00,
2017-07-24 04:42:00,67.8,66.6,29.76,SW,223,0.0,0.0,96,0.00,,,0.19,0,Wunderground v.1.15,2017-07-24 08:42:00,
2017-07-24 04:47:00,67.8,66.6,29.76,WSW,244,0.0,1.0,96,0.00,,,0.19,0,Wunderground v.1.15,2017-07-24 08:47:00,
2017-07-24 04:52:00,67.8,66.6,29.76,WSW,244,0.0,0.0,96,0.00,,,0.19,0,Wunderground v.1.15,2017-07-24 08:52:00,
2017-07-24 04:57:00,67.8,66.6,29.76,WSW,244,0.0,0.0,96,0.00,,,0.19,0,Wunderground v.1.15,2017-07-24 08:57:00,
2017-07-24 05:02:00,67.8,66.6,29.76,WSW,244,0.0,0.0,96,0.00,,,0.19,0,Wunderground v.1.15,2017-07-24 09:02:00,
2017-07-24 05:07:00,67.8,66.6,29.75,WSW,244,0.0,0.0,96,0.00,,,0.19,0,Wunderground v.1.15,2017-07-24 09:07:00,
2017-07-24 05:12:00,67.9,66.7,29.75,WSW,244,0.0,0.0,96,0.00,,,0.19,0,Wunderground v.1.15,2017-07-24 09:12:00,
2017-07-24 05:18:00,67.9,66.7,29.75,WSW,244,0.0,0.0,96,0.00,,,0.19,0,Wunderground v.1.15,2017-07-24 09:18:00,
2017-07-24 05:23:00,68.0,66.8,29.75,WSW,244,0.0,0.0,96,0.00,,,0.19,0,Wunderground v.1.15,2017-07-24 09:23:00,
2017-07-24 05:28:00,68.0,66.8,29.75,WSW,244,0.0,0.0,96,0.00,,,0.19,0,Wunderground v.1.15,2017-07-24 09:28:00,
2017-07-24 05:33:00,68.0,66.8,29.75,WSW,244,0.0,0.0,96,0.00,,,0.19,0,Wunderground v.1.15,2017-07-24 09:33:00,
2017-07-24 05:38:00,68.0,66.8,29.75,WSW,244,0.0,0.0,96,0.00,,,0.19,0,Wunderground v.1.15,2017-07-24 09:38:00,
2017-07-24 05:43:00,68.0,66.8,29.75,WSW,244,0.0,0.0,96,0.00,,,0.19,0,Wunderground v.1.15,2017-07-24 09:43:00,
2017-07-24 05:48:00,68.1,66.9,29.74,WSW,244,0.0,2.0,96,0.00,,,0.19,0,Wunderground v.1.15,2017-07-24 09:48:00,
2017-07-24 05:53:00,68.1,66.9,29.74,WSW,244,0.0,0.0,96,0.00,,,0.19,0,Wunderground v.1.15,2017-07-24 09:53:00,
2017-07-24 05:58:00,68.1,66.9,29.75,WSW,244,0.0,0.0,96,0.00,,,0.19,0,Wunderground v.1.15,2017-07-24 09:58:00,
2017-07-24 06:03:00,68.1,66.9,29.74,WSW,244,0.0,0.0,96,0.00,,,0.19,0,Wunderground v.1.15,2017-07-24 10:03:00,
2017-07-24 06:08:00,68.0,66.8,29.74,WSW,244,0.0,0.0,96,0.00,,,0.19,0,Wunderground v.1.15,2017-07-24 10:08:00,
2017-07-24 06:13:00,68.0,66.8,29.75,WSW,244,0.0,0.0,96,0.00,,,0.19,0,Wunderground v.1.15,2017-07-24 10:13:00,
2017-07-24 06:18:00,68.1,66.9,29.75,WSW,244,0.0,0.0,96,0.00,,,0.19,0,Wunderground v.1.15,2017-07-24 10:18:00,
2017-07-24 06:23:00,68.1,66.9,29.75,WSW,244,0.0,0.0,96,0.00,,,0.19,0,Wunderground v.1.15,2017-07-24 10:23:00,
2017-07-24 06:28:00,68.1,66.9,29.75,WSW,244,0.0,0.0,96,0.00,,,0.19,0,Wunderground v.1.15,2017-07-24 10:28:00,
2017-07-24 06:33:00,68.1,66.9,29.75,WSW,244,0.0,1.0,96,0.00,,,0.19,0,Wunderground v.1.15,2017-07-24 10:33:00,
2017-07-24 06:38:00,68.1,66.9,29.75,WSW,244,0.0,1.0,96,0.00,,,0.19,0,Wunderground v.1.15,2017-07-24 10:38:00,
2017-07-24 06:43:00,68.0,66.8,29.75,WSW,244,0.0,0.0,96,0.00,,,0.19,0,Wunderground v.1.15,2017-07-24 10:43:00,
2017-07-24 06:48:00,68.0,66.8,29.75,WSW,244,0.0,1.0,96,0.00,,,0.19,0,Wunderground v.1.15,2017-07-24 10:48:00,
2017-07-24 06:53:00,68.0,66.8,29.75,WSW,244,0.0,0.0,96,0.00,,,0.19,0,Wunderground v.1.15,2017-07-24 10:53:00,
2017-07-24 06:58:00,68.0,66.8,29.75,WSW,244,0.0,0.0,96,0.00,,,0.19,0,Wunderground v.1.15,2017-07-24 10:58:00,
2017-07-24 07:03:00,68.0,66.8,29.75,WSW,244,0.0,0.0,96,0.00,,,0.19,0,Wunderground v.1.15,2017-07-24 11:03:00,
2017-07-24 07:08:00,68.0,66.8,29.76,WSW,244,0.0,1.0,96,0.00,,,0.19,0,Wunderground v.1.15,2017-07-24 11:08:00,
2017-07-24 07:13:00,68.0,66.8,29.75,WSW,244,0.0,0.0,96,0.00,,,0.19,0,Wunderground v.1.15,2017-07-24 11:13:00,
2017-07-24 07:18:00,68.0,66.8,29.75,WSW,244,0.0,0.0,96,0.00,,,0.19,0,Wunderground v.1.15,2017-07-24 11:18:00,